Regional Weather Roundup
Issued by NWS Charleston, SC

Current Version | Previous Version | Graphics & Text | Print | Product List | Glossary On
Versions: 1 2 3 4 5 6 7 8 9 10 11 12 13 14 15 16 17 18 19 20 21 22 23 24 25 26 27 28 29 30 31 32 33 34 35 36 37 38 39 40 41 42 43 44 45 46 47 48 49 50
069 ASUS42 KCHS 270912 RWRCHS REGIONAL WEATHER ROUNDUP NATIONAL WEATHER SERVICE CHARLESTON SC 500 AM EDT MON MAR 27 2017 NOTE: "FAIR" INDICATES FEW OR NO CLOUDS BELOW 12,000 FEET WITH NO SIGNIFICANT WEATHER AND/OR OBSTRUCTIONS TO VISIBILITY. NOT ALL STATIONS ARE QUALITY CONTROLLED. USE DATA WITH CAUTION... ESPECIALLY DEWPOINT OBSERVATIONS. SCZ027-030-031-034>040-042>050-271000- ...SOUTHEAST SOUTH CAROLINA... CITY SKY/WX TMP DP RH WIND PRES REMARKS N CHARLESTON CLEAR 60 55 83 CALM 30.10F WATERFRONT PRK N/A 63 60 90 VRB3 30.09F JOHNS ISLAND FAIR 61 59 94 S3 30.10F PINOPOLIS N/A 61 57 88 VRB2 30.01F MONCKS CORNER FAIR 52 50 93 CALM 30.10F SUMMERVILLE FAIR 55 55 100 CALM 30.11S BEAUFORT MCAS CLEAR 59 58 96 CALM 30.09F BEAUFORT ARPT FAIR 61 59 94 CALM 30.09S HILTON HEAD IS CLEAR 63 61 94 CALM 30.10S WALTERBORO FOG 54 54 100 CALM 30.11S VSB 1/4 ALLENDALE FAIR 61 59 94 CALM 30.09S ...SOUTHERN MIDLANDS AND PEE DEE... CITY SKY/WX TMP DP RH WIND PRES REMARKS GEORGETOWN FAIR 52 52 100 CALM 30.12S KINGSTREE FAIR 54 52 94 CALM 30.10F ORANGEBURG PTCLDY 59 58 96 S3 30.09F BARNWELL FAIR 61 61 100 CALM 30.09S AIKEN FAIR 57 55 94 S5 30.11F MANNING FAIR 55 54 94 S3 30.10F COLUMBIA CLEAR 62 57 83 SE3 30.08S SUMTER MOCLDY 57 55 93 CALM 30.07F FLORENCE CLEAR 57 57 100 S6 30.10F MYRTLE BEACH CLEAR 59 55 87 CALM 30.12F N MYRTLE BEACH CLEAR 60 57 89 CALM 30.11S $$ GAZ063-065-086>088-099>101-113>116-118-119-134>141-150-271000- ...SOUTHEAST GEORGIA... CITY SKY/WX TMP DP RH WIND PRES REMARKS SAVANNAH ARPT CLEAR 61 56 83 CALM 30.09F HUNTER AAF CLEAR 64 63 99 CALM 30.07S FORT STEWART PTCLDY 55 53 94 CALM 30.07S STATESBORO MOCLDY 61 32 33 S6 30.09S SYLVANIA MOSUNNY N/A N/A N/A CALM 30.10S FOG CLAXTON FAIR N/A N/A N/A CALM 30.10S ...CSRA...CENTRAL AND FAR SOUTHEAST GEORGIA... CITY SKY/WX TMP DP RH WIND PRES REMARKS THOMSON MOCLDY 61 57 87 SW6 30.12S AUGUSTA-BUSH CLEAR 61 58 90 CALM 30.08S AUGUSTA-DANIEL CLEAR 61 56 83 SE5 30.08S SWAINSBORO CLOUDY 63 61 94 S5 30.08F VIDALIA MOCLDY 63 61 94 SE3 30.08F EASTMAN CLOUDY 65 52 63 SE3 30.10S HAZLEHURST FAIR 64 63 96 S3 30.07S ALMA CLOUDY 61 60 97 CALM 30.08R WAYCROSS CLEAR 64 64 100 CALM 30.08S JESUP PTSUNNY 55 54 94 CALM 30.09S BAXLEY FAIR 61 61 100 CALM 30.08S BRUNSWICK FOG 59 59 100 CALM 30.09F VSB 1/4 SAINT SIMONS CLEAR 65 62 90 CALM 30.08F $$ SCZ027-028-034-036>038-045-046-048>050-GAZ119-141-271000- ...LAKE AND SUPPLEMENTAL COASTAL OBSERVATIONS... STATION/POSITION TIME TEMP WIND PRES WAVE SWELL AIR SEA DIR/SP/G HT/PER HT/PER/DIR (UTC) (F) (DEG/KT/KT) (MB) (FT/S) (FT/S/D) WINYAH BAY 0745 59 CALM 1020.0 LAKE MURRAY 0820 63 160/ 6/ 7 1018.3 ACE BASIN NERRS NOT AVBL FORT PULASKI 0848 63 63 160/ 3/ 5 1019.1F SAPELO ISLAND 0800 64 150/ 3 1019.0 $$ ANZ835-935-AMZ111-154-330-350-352-354-370-450-454-472-271000- ...C-MAN AND BUOY OBSERVATIONS... STATION/POSITION TIME TEMP WIND PRES WAVE SWELL AIR SEA DIR/SP/G HT/PER HT/PER/DIR (UTC) (F) (DEG/KT/KT) (MB) (FT/S) (FT/S/D) BUOY 41004 0750 71 74 170/ 12/ 14 1019.1 5/10 3/130/10 BUOY 41008 0750 64 63 130/ 6/ 8 1018.8 4/10 3/ 80/10 FOLLY BEACH CMAN 0800 64 180/ 5/ 6 1020.0F CAPERS NEARSHORE 0808 63 200/ 4/ 6 1019.4F FRIPP NEARSHORE NOT AVBL STATION/POSITION TIME TEMP WIND PRES WAVE SWELL AIR SEA DIR/SP/G HT/PER HT/PER/DIR (UTC) (F) (DEG/KT/KT) (MB) (FT/S) (FT/S/D) 5E ST. MARYS GA 0830 65 N/A 3/ 9 2/100/11 FRYING PAN BUOY 0850 71 76 140/ 10/ 14 1019.5F 4/10 3/150/10 BUOY 41025 0850 69 76 170/ 10/ 14 1021.0F 4/ 8 3/140/ 8 CAPE LOOKOUT NC 0800 66 150/ 8/ 8 1020.1F BUOY 41002 0850 68 72 100/ 12/ 14 1020.3F 6/10 5/130/10 BUOY 41010 NOT AVBL ST AUGUSTINE FL 0900 65 69 CALM / 2 1019.4F $$

USA.gov is the U.S. government's official web portal to all federal, state and local government web resources and services.